Regional Weather Roundup
Issued by NWS

Home | Current Version | Previous Version | Graphics & Text | Print | Product List | Glossary On
Versions: 1 2 3 4 5 6 7 8 9 10 11 12 13 14 15 16 17 18 19 20 21 22 23 24 25 26 27 28 29 30 31 32 33 34 35 36 37 38 39 40 41 42 43 44 45 46 47 48 49 50
000
ASUS43 KMKX 260817
RWRWI

WISCONSIN REGIONAL WEATHER ROUNDUP
NATIONAL WEATHER SERVICE MILWAUKEE/SULLIVAN WI
300 AM CDT TUE MAY 26 2015

NOTE: "FAIR" INDICATES FEW OR NO CLOUDS BELOW 12,000 FEET WITH NO
SIGNIFICANT WEATHER AND/OR OBSTRUCTIONS TO VISIBILITY.

WIZ001-002-006>008-014>016-023>028-260900-
NORTHWEST WISCONSIN

CITY           SKY/WX    TMP DP  RH WIND       PRES   REMARKS
SUPERIOR ARPT  DRIZZLE   47  47 100 SE3       29.82R
ASHLAND        CLOUDY    50  50 100 NE3       29.82R
HAYWARD        CLOUDY    56  54  93 CALM      29.80R
SIREN          FOG       53  52  97 N3        29.80R VSB 1/4
CUMBERLAND     FOG       54  54 100 CALM      29.80F VSB 1/4
RICE LAKE      FOG       56  55  95 CALM      29.82R VSB<1/4
CHETEK         FOG       58  58 100 CALM      29.80S VSB 1/4
LADYSMITH      MOCLDY    59  58  97 S5        29.83S FOG
EAU CLAIRE     FOG       57  56  96 CALM      29.80S VSB 1/2
MENOMONIE      MOCLDY    59  59  99 CALM      29.81S
NEW RICHMOND   PTCLDY    59  59 100 CALM      29.80S FOG
OSCEOLA        FOG       55  55 100 CALM      29.82S VSB 1/2
$$

WIZ003>005-009-010-017-018-260900-
NORTH CENTRAL WISCONSIN

CITY           SKY/WX    TMP DP  RH WIND       PRES   REMARKS
MANITOWISH WTR MOCLDY    59  59 100 SW5       29.80S
ARBOR VITAE    MOCLDY    62  60  94 SW3       29.81S
WOODRUFF       MOCLDY    62  60  94 SW3       29.81S
RHINELANDER    CLEAR     59  57  93 SW6       29.83S
EAGLE RIVER    MOCLDY    60  60  99 CALM      29.81F
LAND O LAKES   CLOUDY    60  59  98 CALM      29.82S
PHILLIPS       MOCLDY    60  59  99 S3        29.80S
TOMAHAWK         N/A     56  55  97 CALM      29.83S FOG
MEDFORD        PTCLDY    59  58  97 SW5       29.82F
MERRILL        FOG       51  51 100 CALM      29.84R VSB 3/4
$$

WIZ029-030-035-036-043>047-260900-
CENTRAL WISCONSIN

CITY           SKY/WX    TMP DP  RH WIND       PRES   REMARKS
WAUSAU         PTCLDY    61  60  97 SW7       29.81F
MOSINEE        PTCLDY    59  59 100 S7        29.84F
MARSHFIELD     MOCLDY    63  60  90 SW8       29.82F
STEVENS POINT  PTCLDY    59  59  97 S3        29.84F
WAUPACA        CLEAR     64  63  96 CALM      29.84F
WAUTOMA        NOT AVBL
WISC RAPIDS    MOCLDY    63  60  90 CALM      29.85S
CAMP DOUGLAS   MOCLDY    68  68 100 SW9       29.82F
$$

WIZ011>013-019>022-031-037>040-048>050-260900-
NORTHEAST WISCONSIN

CITY           SKY/WX    TMP DP  RH WIND       PRES   REMARKS
ANTIGO         CLEAR     61  60  96 SW9       29.84S
SHAWANO        PTCLDY    64  61  91 CALM      29.84S
OCONTO         PTCLDY    61  61 100 CALM      29.83S
STURGEON BAY   PTCLDY    66  59  77 SW10      29.86S
GREEN BAY      CLEAR     66  60  81 S6        29.85F
MANITOWOC      NOT AVBL
APPLETON       CLEAR     64  57  77 S7        29.86F
CLINTONVILLE   CLEAR     63  61  94 S3        29.84S
OSHKOSH        CLEAR     64  59  83 S8        29.85F
$$

WIZ032>034-041-042-053>061-260900-
SOUTHWEST WISCONSIN

CITY           SKY/WX    TMP DP  RH WIND       PRES   REMARKS
LA CROSSE      CLOUDY    64  60  87 SE6       29.77F
SPARTA         MOCLDY    65  62  89 S3        29.82F
VIROQUA        CLOUDY    63  61  91 W9        29.84F
BOSCOBEL       PTCLDY    64  58  80 S3        29.85F
PRAIRIE DU CHI PTCLDY    62  57  83 CALM      29.83F
PLATTEVILLE    MOCLDY    66  63  88 W15G22    29.88R
$$

WIZ056-057-062-063-064-067-068-260900-
SOUTH CENTRAL WISCONSIN

CITY           SKY/WX    TMP DP  RH WIND       PRES   REMARKS
REEDSBURG      MOCLDY    67  62  86 S5        29.84S
BARABOO/DELLS  PTCLDY    66  60  80 S8        29.85S
LONE ROCK      NOT AVBL
MINERAL POINT  PTCLDY    63  61  94 SE6       29.87F
MADISON        FAIR      66  60  81 S8        29.86F
MIDDLETON      FAIR      67  60  79 S3        29.87F
WATERTOWN      CLEAR     64  63  96 S6        29.88F
MONROE         CLEAR     64  63  94 S13       29.89S
JANESVILLE     CLEAR     68  63  83 S9        29.89S
$$

WIZ051-052-058>065-066-070>072-260900-
SOUTHEAST WISCONSIN

CITY           SKY/WX    TMP DP  RH WIND       PRES   REMARKS
MILWAUKEE      PTCLDY    67  60  78 S8        29.91S
WAUKESHA       CLEAR     63  59  88 S3        29.92S
MILWAUKEE/TIMM CLEAR     68  59  73 S10G18    29.90F
RACINE         PTCLDY    68  59  73 SW9       29.93S
BURLINGTON     CLEAR     63  60  88 S7        29.91F
KENOSHA        PTCLDY    67  61  81 S7        29.91F
FOND DU LAC    CLEAR     68  60  75 S13       29.87S
SHEBOYGAN      CLEAR     64  60  87 S7        29.88S
WEST BEND      CLEAR     63  57  82 S5        29.88F
JUNEAU         CLEAR     64  60  85 SE7       29.89F
$$

LSZ147-162-260900-
LAKE SUPERIOR

STATION/POSITION TIME  TEMP    WIND        PRES    WAVE
                       AIR SEA DIR/SP/G            HT/PER
                 (UTC) (F)     (DEG/KT/KT) (MB)    (FT/S)
W MID LAKE BUOY  0650   40 36  300/  6/  6   N/A     1/ 5
DEVILS ISLAND    0700   46     290/  4/  5   N/A
PORT WING        0740   45     220/  1/  2   N/A
SAXON HARBOR     0700   48        CALM       N/A
$$

LMZ867-665-643>646-260900-
LAKE MICHIGAN

STATION/POSITION TIME  TEMP    WIND        PRES    WAVE
                       AIR SEA DIR/SP/G            HT/PER
                 (UTC) (F)     (DEG/KT/KT) (MB)    (FT/S)
CHAMBERS ISLAND  0700   62     170/  4/  8   N/A
N MID LAKE BUOY  0650   42 37  190/ 12/ 16   N/A     2/ 5
SISTER BAY       0748   62     160/  5/  6   N/A
KEWAUNEE LAKESHO 0700   53     180/  3/  5   N/A
SHEBOYGAN LAKESH 0700   60     220/  7/  8   N/A
PORT WASHINGTON  0600          190/  8/ 12   N/A
ATWATER BUOY     0700   53 46  150/ 12/ 14   N/A
MILWAUKEE LAKESH 0700   69     210/ 11/ 14   N/A
S MID LAKE BUOY  0650   46 38  190/ 12/ 12   N/A     1
KENOSHA   LAKESH 0700   65     190/  7/  9   N/A
$$

TC  - TEMPERATURE IN CELSIUS
VSB - VISIBILITY IN STATUTE MILES
WCI - WIND CHILL INDEX
HX  - HEAT INDEX



USA.gov is the U.S. government's official web portal to all federal, state and local government web resources and services.